Location: Dittelbrunn
(50.0738°N, 10.2196°E)
Time: 13:04:35
(UTC+00:00)

Cosmos 1627 Rocket - Pass Details

Date: 18 September 2020
Orbit: 951 x 1003 km, 82.9° (Epoch: 21 October)

Event Time Altitude Azimuth Distance (km) Brightness Sun altitude
Rises 19:41:47 0° 350° (N) 3,730 8.1 -21.6°
Reaches altitude 10° 19:44:19 10° 351° (N) 2,781 7.4 -22.0°
Maximum altitude 19:50:45 84° 81° (E) 1,015 4.4 -22.8°
Enters shadow 19:53:35 36° 167° (SSE) 1,530 5.1 -23.2°
